"Time","Temp","Dewpoint","Humidity","Pressure","Direction","Speed","Gust","Precip","PrecipRate"
"00:04:59","39.8","38.5","95","29.36","332","0.6","3.6","0.00","0.02"
"00:09:56","39.7","38.4","95","29.36","344","1.1","3.6","0.00","0.01"
"00:14:57","39.6","38.3","95","29.36","12","0.8","3.6","0.00","0.01"
"00:19:56","39.6","38.3","95","29.35","44","1.1","3.6","0.00","0.01"
"00:24:57","39.6","38.4","95.5","29.35","43","0.5","2.4","0.00","0.01"
"00:29:58","39.6","38.5","95.8","29.35","40","0.1","2.4","0.00","0.01"
"00:34:59","39.6","38.6","96","29.34","3","1.6","4.8","0.00","0.01"
"00:39:56","39.7","38.7","96","29.34","355","0.4","3.5","0.00","0.01"
"00:44:57","39.6","38.6","96","29.34","355","1.3","2.4","0.00","0.01"
"00:49:56","39.6","38.6","96","29.32","355","0.3","2.3","0.00","0.01"
"00:54:56","39.7","38.7","96","29.32","355","0.3","2.4","0.00","0.01"
"00:59:58","39.7","38.7","96","29.32","355","0.1","2.4","0.00","0.01"
"01:04:57","39.7","38.7","96","29.32","355","0.4","2.4","0.00","0.00"
"01:09:56","39.7","38.7","96","29.32","355","0.1","1.2","0.00","0.00"
"01:14:58","39.8","38.8","96","29.32","355","0","0","0.00","0.00"
"01:19:56","39.7","38.7","96","29.32","355","0","0","0.00","0.00"
"01:24:57","39.8","38.8","96","29.32","355","0","0","0.00","0.00"
"01:29:58","39.8","38.8","96","29.33","341","0.5","3.6","0.00","0.00"
"01:34:57","39.7","38.7","96","29.33","262","1.8","4.8","0.00","0.00"
"01:39:58","39.6","38.6","96","29.33","264","2.2","4.8","0.00","0.00"
"01:44:58","39.5","38.5","96","29.33","256","2.2","7.2","0.00","0.00"
"01:49:57","39.2","38.1","95.4","29.33","291","1.5","4.8","0.00","0.00"
"01:54:58","39","37.9","95.7","29.33","300","1.1","3.6","0.00","0.00"
"01:59:59","38.9","37.9","96","29.33","250","0.5","3.6","0.00","0.00"
"02:04:58","38.8","37.8","96","29.33","312","2","4.8","0.00","0.00"
"02:09:57","38.8","37.8","96","29.33","325","2.4","7.2","0.00","0.00"
"02:14:58","38.7","37.7","96","29.34","290","2.8","6","0.00","0.00"
"02:19:57","38.7","37.7","96","29.34","321","2.1","7.2","0.00","0.00"
"02:24:58","38.6","37.6","96","29.34","300","2.6","7.2","0.00","0.00"
"02:29:59","38.4","37.4","96","29.34","277","2.1","4.8","0.00","0.00"
"02:34:57","38.4","37.4","96","29.34","316","2.4","6","0.00","0.00"
"02:39:58","38.3","37.3","96","29.34","275","0.8","3.6","0.00","0.00"
"02:44:59","38.2","37.2","96","29.34","165","0.6","2.4","0.00","0.00"
"02:49:57","38.2","37.2","96","29.34","168","1.6","3.6","0.00","0.00"
"02:54:59","38.3","37.3","96","29.34","168","0.1","2.3","0.00","0.00"
"02:59:56","38.3","37.3","96","29.35","168","0","0","0.00","0.00"
"03:04:57","38.3","37.3","96","29.35","308","1.8","4.8","0.00","0.00"
"03:09:56","38.2","37.2","96","29.35","307","0.8","3.6","0.00","0.00"
"03:14:57","38.1","36.9","95.5","29.36","290","2","8.4","0.00","0.00"
"03:19:59","38","36.8","95.3","29.36","306","2.3","6.9","0.00","0.00"
"03:24:56","38","36.7","95","29.36","3","2.1","8.4","0.00","0.00"
"03:29:57","37.9","36.6","95.1","29.38","325","2.7","6","0.00","0.00"
"03:34:59","37.8","36.8","96","29.38","322","1.9","4.8","0.00","0.00"
"03:39:56","37.8","36.8","96","29.38","328","3.2","7.2","0.00","0.00"
"03:44:57","37.8","36.8","96","29.39","339","2.4","7.2","0.00","0.00"
"03:49:58","37.9","36.9","96","29.39","321","3.7","7.2","0.00","0.00"
"03:54:58","37.9","36.9","96","29.39","273","0.9","5.8","0.00","0.00"
"03:59:59","37.8","36.8","96","29.40","273","0.1","1.2","0.00","0.00"
"04:04:56","37.7","36.7","96","29.40","273","0","0","0.00","0.00"
"04:09:56","37.7","36.7","96","29.40","273","0","0","0.00","0.00"
"04:14:58","37.7","36.7","96","29.41","273","0.3","2.4","0.00","0.00"
"04:19:57","37.9","36.9","96","29.41","273","0","0","0.00","0.00"
"04:24:59","37.9","36.9","96","29.41","273","0","0","0.00","0.00"
"04:29:59","37.9","36.9","96","29.42","273","0","0","0.00","0.00"
"04:34:56","37.9","36.9","96","29.42","273","0","0","0.00","0.00"
"04:39:58","37.8","36.8","96","29.42","273","0","0","0.00","0.00"
"04:44:59","37.7","36.7","96","29.43","273","0","0","0.00","0.00"
"04:49:58","37.7","36.7","96","29.43","273","0","0","0.00","0.00"
"04:54:55","37.6","36.6","96","29.43","273","0.1","2.4","0.00","0.00"
"04:59:57","37.7","36.7","96","29.44","273","0.4","2.4","0.00","0.00"
"05:04:59","37.7","36.7","96","29.44","299","1.3","3.6","0.00","0.00"
"05:09:58","38","37.1","96.6","29.44","302","1.2","4.8","0.00","0.00"
"05:14:59","38.3","37.5","97","29.46","299","1.2","4.8","0.00","0.00"
"05:19:58","38.4","37.6","97","29.46","335","1.6","4.8","0.00","0.00"
"05:24:59","38.6","37.7","96.4","29.46","6","0.8","3.6","0.00","0.00"
"05:29:56","38.4","37.4","96","29.47","360","0.3","2.3","0.00","0.00"
"05:34:59","38.3","37.3","96","29.47","360","0.1","2.4","0.00","0.00"
"05:39:56","38.4","37.4","96","29.47","11","0.3","2.3","0.00","0.00"
"05:44:57","38.3","37.3","96","29.48","17","0.1","1.2","0.00","0.00"
"05:49:57","38.1","37.1","96","29.48","299","0.6","3.6","0.00","0.00"
"05:54:57","38","37","96","29.48","211","1.1","3.6","0.00","0.00"
"05:59:59","38.1","37.1","96","29.49","169","1","3.6","0.00","0.00"
"06:04:57","37.8","36.8","96","29.49","169","0","1.2","0.00","0.00"
"06:09:58","37.5","36.4","95.7","29.49","169","0","0","0.00","0.00"
"06:14:59","37","35.7","95","29.50","169","0","0","0.00","0.00"
"06:19:58","36.8","35.5","95","29.50","169","0","0","0.00","0.00"
"06:24:56","36.6","35.4","95.3","29.50","169","0","0","0.00","0.00"
"06:29:57","36.6","35.6","96","29.51","209","1.2","8.4","0.00","0.00"
"06:34:59","37.5","36.6","96.5","29.51","243","4.1","12","0.00","0.00"
"06:39:56","40","38.7","95.1","29.51","251","5","10.8","0.00","0.00"
"06:44:57","41.9","39","89.4","29.52","274","6.6","18","0.00","0.00"
"06:49:59","43.9","39","82.8","29.52","293","7.4","20.7","0.00","0.00"
"06:54:56","44.8","38.7","79","29.52","277","6.8","19.2","0.00","0.00"
"06:59:56","45.3","38.4","76.7","29.53","298","5.3","13.2","0.00","0.00"
"07:04:56","45.6","38.3","75.6","29.53","303","5.4","13.2","0.00","0.00"
"07:09:58","45.7","38.2","75","29.53","296","4.9","15","0.00","0.00"
"07:14:59","46","38.1","73.6","29.56","309","6.1","22.8","0.00","0.00"
"07:19:56","46.5","37.9","71.9","29.56","300","7.7","23","0.00","0.00"
"07:24:56","46.9","37.9","70.8","29.56","280","6.2","20.4","0.00","0.00"
"07:29:56","46.9","37.6","70","29.58","274","7.2","20.7","0.00","0.00"
"07:34:59","47","37.6","69.8","29.58","268","5.5","16.1","0.00","0.00"
"07:39:59","46.8","37.7","70.5","29.58","282","5.7","19.2","0.00","0.00"
"07:44:56","47","37.1","68.3","29.59","302","9.6","25.3","0.00","0.00"
"07:49:56","47","36.7","67.2","29.59","281","8.5","16.8","0.00","0.00"
"07:54:56","46.7","36","66","29.59","286","8.7","19.6","0.00","0.00"
"07:59:57","46.7","35.8","65.9","29.61","276","8","21.9","0.00","0.00"
"08:04:56","46.4","35.6","65.6","29.61","292","9.8","34.8","0.00","0.00"
"08:09:59","46.6","35.2","64.1","29.61","290","10.7","26.5","0.00","0.00"
"08:14:59","46.6","35.4","64.7","29.62","285","8","19.6","0.00","0.00"
"08:19:57","46.6","35.3","64.3","29.62","297","7.7","19.6","0.00","0.00"
"08:24:57","46.8","35.1","63.7","29.62","309","8.7","20.4","0.00","0.00"
"08:29:57","47.9","35.6","62.4","29.64","292","8.7","21.9","0.00","0.00"
"08:34:59","48.7","35.4","60.2","29.64","304","9.8","24.2","0.00","0.00"
"08:39:57","48.9","35.6","60.1","29.64","289","10.1","21.9","0.00","0.00"
"08:44:58","49.3","36.3","60.9","29.64","289","9.8","21.9","0.00","0.00"
"08:49:58","49.4","35.3","58.3","29.64","310","9.7","21.9","0.00","0.00"
"08:54:59","49.9","36.2","59.2","29.64","281","6.5","12","0.00","0.00"
"08:59:59","50.4","36.5","58.8","29.65","298","8","23","0.00","0.00"
"09:04:45","50.5","36.7","58.9","29.65","308","8.7","19.6","0.00","0.00"
"09:14:57","51.4","38.4","61","29.67","296","6.3","16.1","0.00","0.00"
"09:19:59","51.5","37.1","57.8","29.67","307","8.8","20.7","0.00","0.00"
"09:24:59","51.6","37.6","58.8","29.67","274","6.5","16.1","0.00","0.00"
"09:29:57","52","37.1","56.9","29.68","282","7.5","18.4","0.00","0.00"
"09:34:17","51.6","37.1","57.6","29.68","267","9.2","21.6","0.00","0.00"
"09:39:56","51.6","37.1","57.6","29.68","279","10.1","19.6","0.00","0.00"
"09:44:58","51.7","37.2","57.6","29.69","276","8.4","20.7","0.00","0.00"
"09:49:59","52","36.8","56.2","29.69","314","9.6","21.9","0.00","0.00"
"09:54:57","51.5","36.1","55.5","29.69","306","10.4","21.9","0.00","0.00"
"09:59:58","51.8","37.2","57.3","29.70","309","7.6","18.4","0.00","0.00"
"10:04:58","52.7","37.7","56.6","29.70","286","7.9","20.7","0.00","0.00"
"10:09:56","52.8","38","57.2","29.70","291","7.9","25.3","0.00","0.00"
"10:14:56","52.8","37.6","56","29.71","314","7.8","15","0.00","0.00"
"10:19:56","53.1","37.3","55.1","29.71","320","8","15.6","0.00","0.00"
"10:24:56","53.6","38","55.5","29.71","312","6.6","16.8","0.00","0.00"
"10:29:56","53.9","38.6","56","29.72","287","6.6","17.3","0.00","0.00"
"10:34:56","53.8","38","55.1","29.72","300","7.5","15","0.00","0.00"
"10:39:57","54.5","38.9","55.6","29.72","287","7.2","18.4","0.00","0.00"
"10:44:57","53.9","38","54.9","29.73","302","8.2","23","0.00","0.00"
"10:49:57","53.1","36.5","53.2","29.73","327","11.5","25.3","0.00","0.00"
"10:54:57","53.6","38.2","55.8","29.73","274","9.8","19.6","0.00","0.00"
"10:59:57","54.1","38.4","55.3","29.74","297","10.6","26.4","0.00","0.00"
"11:04:57","53.1","36.7","53.6","29.74","313","11.7","26.5","0.00","0.00"
"11:09:56","54.3","38.3","54.6","29.74","295","7.1","21.9","0.00","0.00"
"11:14:58","54.8","38.9","54.9","29.74","259","6.8","21.9","0.00","0.00"
"11:19:59","54.6","38.8","55.2","29.74","260","7","21.6","0.00","0.00"
"11:24:56","53.8","37.5","54","29.74","299","9.8","20.7","0.00","0.00"
"11:29:57","54.4","38.1","54.1","29.75","260","9.6","20.4","0.00","0.00"
"11:34:59","54.2","38","54.2","29.75","317","7.4","18.4","0.00","0.00"
"11:39:56","54.1","37.8","54","29.75","313","7.6","21.9","0.00","0.00"
"11:44:57","54.8","38.2","53.5","29.76","294","8.3","20.4","0.00","0.00"
"11:49:58","54.4","36.6","51","29.76","310","9.5","20.7","0.00","0.00"
"11:54:59","54","37.4","53.3","29.76","292","7.6","17.3","0.00","0.00"
"11:59:56","54.1","37.4","53.2","29.77","290","8","23","0.00","0.00"
"12:04:57","53.8","37.1","53.1","29.77","329","9.3","21.9","0.00","0.00"
"12:09:56","53.9","37.3","53.3","29.77","322","9.9","25.2","0.00","0.00"
"12:14:57","53.3","36.8","53.5","29.78","328","9.6","25.3","0.00","0.00"
"12:19:58","54.1","37.6","53.5","29.78","323","9.4","30","0.00","0.00"
"12:24:59","53.7","36.7","52.4","29.78","335","11.9","29.9","0.00","0.00"
"12:29:56","53.9","37.3","53.4","29.78","321","10.2","27.6","0.00","0.00"
"12:34:57","55.3","38.7","53.6","29.78","287","8.3","25.2","0.00","0.00"
"12:39:58","55.1","37.6","51.6","29.78","325","10.3","25.3","0.00","0.00"
"12:44:59","55","37.7","52","29.78","311","10.7","19.6","0.00","0.00"
"12:49:56","55.1","37.9","52.2","29.77","305","11.1","24.2","0.00","0.00"
"12:54:57","55.2","37.8","52","29.77","317","11.2","31.2","0.00","0.00"
"12:59:56","55.3","37.9","52","29.77","325","12","31.1","0.00","0.00"
"13:04:56","55.6","37.6","50.7","29.77","281","10.1","21.9","0.00","0.00"
"13:09:59","56.1","38.3","51.2","29.77","310","10.3","25.3","0.00","0.00"
"13:14:57","55.5","37.2","50","29.78","335","12","27.6","0.00","0.00"
"13:19:58","55.7","38.3","51.9","29.78","291","8.1","19.6","0.00","0.00"
"13:24:59","54.4","36.1","49.9","29.78","317","10.4","21.9","0.00","0.00"
"13:29:56","53.2","35.9","51.7","29.81","0","9.4","26.5","0.00","0.00"
"13:34:57","53.4","37","53.6","29.81","320","5.9","17.3","0.00","0.00"
"13:39:58","53.6","37","53.2","29.81","324","7.2","20.4","0.00","0.00"
"13:44:59","53.7","36.6","52.2","29.81","335","10","18.4","0.00","0.00"
"13:49:57","54.5","37.7","53","29.80","334","9.8","24.2","0.00","0.00"
"13:54:58","55.1","37.9","52.1","29.80","329","11.6","28.8","0.00","0.00"
"13:59:56","55.2","37.8","51.9","29.80","308","9.5","28.8","0.00","0.00"
"14:04:57","55.6","38","51.6","29.79","310","10.9","25.3","0.00","0.00"
"14:09:56","54.9","37","50.7","29.79","304","12.1","25.3","0.00","0.00"
"14:14:57","54.6","37.2","51.8","29.80","293","9.6","23","0.00","0.00"
"14:19:58","54.4","36.8","51.4","29.80","301","10.7","23","0.00","0.00"
"14:24:56","54.7","37.7","52.7","29.80","286","8.8","21.6","0.00","0.00"
"14:29:57","54.8","37.4","51.7","29.82","310","8.8","21.9","0.00","0.00"
"14:34:58","54.9","37","50.8","29.82","314","10.7","27.6","0.00","0.00"
"14:39:56","54.3","36.8","51.7","29.82","312","12.9","26.5","0.00","0.00"
"14:44:57","54.7","37.1","51.4","29.82","293","10.5","22.8","0.00","0.00"
"14:49:58","54.4","36.4","50.7","29.82","291","12.9","26.5","0.00","0.00"
"14:54:56","54.3","36.9","51.8","29.82","318","12.8","25.3","0.00","0.00"
"14:59:57","54.5","37","51.8","29.82","321","12.2","24.2","0.00","0.00"
"15:04:58","54.8","37","50.9","29.82","321","11.4","24.2","0.00","0.00"
"15:09:56","54.7","37.2","51.7","29.82","312","9.7","26.5","0.00","0.00"
"15:14:58","55.1","37.5","51.3","29.84","316","7.2","19.2","0.00","0.00"
"15:19:59","55.1","37","50.4","29.84","279","9.8","21.9","0.00","0.00"
"15:24:56","54.6","36.7","50.9","29.84","313","9.2","20.4","0.00","0.00"
"15:29:57","54.9","36.9","50.6","29.85","317","9.8","21.9","0.00","0.00"
"15:34:58","54.3","36.1","50.1","29.85","304","10.9","21.9","0.00","0.00"
"15:39:56","54.4","36.5","50.8","29.85","321","9","19.6","0.00","0.00"
"15:44:57","54.6","36.9","51.3","29.86","324","9.6","21.9","0.00","0.00"
"15:49:58","54.6","36.1","49.6","29.86","318","12.7","25.3","0.00","0.00"
"15:54:59","54.3","35.8","49.7","29.86","315","11.4","27.6","0.00","0.00"
"15:59:56","54.2","35.6","49.3","29.86","315","11.8","30","0.00","0.00"
"16:04:57","54.2","35.7","49.5","29.86","327","13.1","32.4","0.00","0.00"
"16:09:59","54.2","35.8","49.7","29.86","318","11.4","25.3","0.00","0.00"
"16:14:57","54","35.3","49.1","29.86","323","13.3","27.6","0.00","0.00"
"16:19:57","54.2","35.8","49.7","29.86","319","8.6","26.5","0.00","0.00"
"16:24:57","54.4","35.9","49.5","29.86","162","8.5","24","0.00","0.00"
"16:29:58","54.4","35.8","49.3","29.87","316","7.8","24.2","0.00","0.00"
"16:34:59","54.7","36.6","50.4","29.87","18","3.3","13.2","0.00","0.00"
"16:39:57","54.5","36","49.6","29.87","316","6.5","15.6","0.00","0.00"
"16:44:58","54.1","36","50.3","29.89","262","5.5","16.1","0.00","0.00"
"16:49:59","54.2","36","50.1","29.89","231","3.4","8.4","0.00","0.00"
"16:54:56","54","35.7","49.8","29.89","277","3.8","8.4","0.00","0.00"
"16:59:57","53.7","36.1","51.2","29.90","75","3.4","12","0.00","0.00"
"17:04:58","53.4","35.2","50","29.90","314","3.6","11.5","0.00","0.00"
"17:09:57","53.4","35","49.8","29.90","326","5.2","15","0.00","0.00"
"17:14:59","53.4","35.2","50","29.91","270","3.2","6","0.00","0.00"
"17:19:57","53.2","35","49.9","29.91","302","3.8","13.2","0.00","0.00"
"17:24:58","52.8","34.3","49.3","29.91","321","8.4","18.4","0.00","0.00"
"17:29:59","52.2","34","49.9","29.92","333","8.9","19.2","0.00","0.00"
"17:34:56","51.6","34.1","51","29.92","301","6.7","16.1","0.00","0.00"
"17:39:58","51.3","34.1","51.6","29.92","317","7.7","18","0.00","0.00"
"17:44:56","51.1","34.1","52","29.93","310","6.5","18.4","0.00","0.00"
"17:49:58","50.9","34.1","52.4","29.93","302","4.4","10.8","0.00","0.00"
"17:54:56","50.6","34.3","53.4","29.93","315","5.3","18.4","0.00","0.00"
"17:59:59","50.2","34.3","54.2","29.94","302","4.2","15","0.00","0.00"
"18:04:59","50","34.1","54.2","29.94","319","5.5","12.7","0.00","0.00"
"18:09:58","49.9","34.1","54.5","29.94","345","3.6","8.4","0.00","0.00"
"18:14:56","49.8","33.8","54.2","29.95","326","4.6","10.8","0.00","0.00"
"18:19:59","49.6","34","54.8","29.95","326","2.6","6.9","0.00","0.00"
"18:24:57","49.4","34","55.3","29.95","326","2.4","7.2","0.00","0.00"
"18:29:58","49.1","33.9","55.7","29.96","323","2.5","6","0.00","0.00"
"18:34:56","48.8","34.1","56.7","29.96","325","0.6","2.4","0.00","0.00"
"18:39:59","48.4","33.8","57","29.96","325","0.9","3.6","0.00","0.00"
"18:44:56","48.1","33.9","57.7","29.97","325","0.3","2.4","0.00","0.00"
"18:49:58","47.8","34","58.6","29.97","317","0.4","6","0.00","0.00"
"18:54:56","47.7","34","58.8","29.97","350","2.6","8.4","0.00","0.00"
"18:59:56","47.7","34.1","59","29.99","351","0.8","3.6","0.00","0.00"
"19:04:57","47.4","34","59.5","29.99","339","1.5","7.2","0.00","0.00"
"19:09:57","47.2","33.8","59.5","29.99","305","2","6.9","0.00","0.00"
"19:14:59","47.1","33.8","59.8","29.99","283","1.8","4.8","0.00","0.00"
"19:19:57","47","33.8","59.8","29.99","278","1.7","3.6","0.00","0.00"
"19:24:59","46.9","33.7","60","29.99","297","2.1","4.8","0.00","0.00"
"19:29:56","46.7","33.5","60","30.00","343","1.5","4.8","0.00","0.00"
"19:34:57","46.6","33.5","60.2","30.00","346","2.1","4.8","0.00","0.00"
"19:39:59","46.4","33.6","60.9","30.00","351","0.5","3.5","0.00","0.00"
"19:44:57","46.1","33.4","61","30.01","322","1.8","6","0.00","0.00"
"19:49:58","46.2","33.4","60.8","30.01","319","1.5","4.8","0.00","0.00"
"19:54:56","46.1","33.4","61","30.01","318","1","4.8","0.00","0.00"
"19:59:57","45.9","33.2","61","30.02","321","1.6","4.8","0.00","0.00"
"20:04:58","45.9","33.2","61","30.02","253","1.4","4.6","0.00","0.00"
"20:09:57","45.8","33.2","61.2","30.02","275","1","4.8","0.00","0.00"
"20:14:56","45.7","33.3","61.7","30.03","324","2.1","7.2","0.00","0.00"
"20:19:58","45.6","33.1","61.7","30.03","319","1.3","3.6","0.00","0.00"
"20:24:56","45.3","33","62","30.03","319","0.5","2.4","0.00","0.00"
"20:29:58","45","32.8","62.2","30.03","319","0.2","2.4","0.00","0.00"
"20:34:57","44.7","32.9","63.1","30.03","319","0.4","2.4","0.00","0.00"
"20:39:59","44.3","32.7","63.6","30.03","319","1","3.6","0.00","0.00"
"20:44:57","44.3","32.8","63.9","30.04","318","2.2","3.6","0.00","0.00"
"20:49:58","44.4","32.8","63.3","30.04","306","2.3","3.6","0.00","0.00"
"20:54:56","44.5","32.8","63.2","30.04","273","1","3.5","0.00","0.00"
"20:59:59","44.3","32.9","64","30.05","273","0","0","0.00","0.00"
"21:04:56","44","32.8","64.5","30.05","273","0","0","0.00","0.00"
"21:09:56","43.6","32.6","65.1","30.05","273","0","0","0.00","0.00"
"21:14:59","43.3","32.7","66","30.05","273","0","0","0.00","0.00"
"21:19:59","42.8","32.3","66.1","30.05","273","0","0","0.00","0.00"
"21:24:57","42.5","32.3","67","30.05","273","0","0","0.00","0.00"
"21:29:59","42.2","32.3","67.7","30.05","273","0","0","0.00","0.00"
"21:34:58","41.9","32.3","68.3","30.05","273","0","0","0.00","0.00"
"21:39:57","41.4","32.5","70.3","30.05","273","0","0","0.00","0.00"
"21:44:59","40.8","32.1","71","30.06","273","0","0","0.00","0.00"
"21:49:58","40.4","31.8","71.2","30.06","273","0","0","0.00","0.00"
"21:54:56","40","31.8","72.5","30.06","273","0","0","0.00","0.00"
"21:59:58","39.5","31.9","73.9","30.07","273","0","0","0.00","0.00"
"22:04:59","39.2","31.6","74","30.07","273","0","0","0.00","0.00"
"22:09:59","38.8","31.5","74.8","30.07","273","0","0","0.00","0.00"
"22:14:57","38.4","31.5","76.2","30.07","273","0.2","1.2","0.00","0.00"
"22:19:59","38.3","31.6","76.6","30.07","273","1.1","2.4","0.00","0.00"
"22:24:57","38.2","31.6","77","30.07","301","0.9","4.8","0.00","0.00"
"22:29:59","38","31.4","77","30.07","321","1.3","3.6","0.00","0.00"
"22:34:57","37.9","31.3","77","30.07","321","0.9","2.4","0.00","0.00"
"22:39:59","37.8","31.6","78","30.07","321","0.6","2.4","0.00","0.00"
"22:44:58","37.5","31.3","78.1","30.08","321","0.3","2.4","0.00","0.00"
"22:49:56","37.1","31.2","79","30.08","320","0.6","2.4","0.00","0.00"
"22:54:58","36.8","31.1","79.8","30.08","320","0","0","0.00","0.00"
"22:59:57","36.5","31","80.4","30.08","320","0","0","0.00","0.00"
"23:04:58","36.3","31","81","30.08","320","0","0","0.00","0.00"
"23:09:57","36.1","31","81.7","30.08","320","0","0","0.00","0.00"
"23:14:56","35.9","30.9","82","30.08","320","0","0","0.00","0.00"
"23:19:58","35.6","30.8","82.5","30.08","320","0","0","0.00","0.00"
"23:24:56","35.4","30.8","83","30.08","320","0","0","0.00","0.00"
"23:29:58","35.2","30.7","83.3","30.10","321","0","0","0.00","0.00"
"23:34:56","35","30.7","84","30.10","321","0","0","0.00","0.00"
"23:39:58","35","30.7","84","30.10","321","0","0","0.00","0.00"
"23:44:57","35.2","30.9","84","30.10","321","0","0","0.00","0.00"
